Location: Newark
(29.9790°N, 31.1340°E)
Time: 04:03:41
(UTC+00:00)

Tiros 1 - Visible Passes

Search period start: 18 January 2020 00:00
Search period end: 28 January 2020 00:00
Orbit: 630 x 664 km, 48.4° (Epoch: 17 January)

Date Brightness Start Highest point End Pass type
(mag) Time Alt. Az. Time Alt. Az. Time Alt. Az.
19 Jan 9.6 17:01:50 10° N 17:02:15 11° N 17:02:15 11° N visible
20 Jan 9.6 17:26:45 10° NNW 17:27:22 12° NNW 17:27:22 12° NNW visible
21 Jan 9.3 16:12:01 10° N 16:13:12 11° NNE 16:14:24 10° NNE visible
21 Jan 9.8 17:52:11 10° NNW 17:52:35 12° NNW 17:52:35 12° NNW visible
22 Jan 8.8 16:36:47 10° NNW 16:39:58 17° NNE 16:40:12 17° NNE visible
23 Jan 8.2 17:02:10 10° NNW 17:05:39 30° NNE 17:05:39 30° NNE visible
24 Jan 8.9 15:46:50 10° NNW 15:49:52 16° NNE 15:52:53 10° ENE visible
24 Jan 7.9 17:27:54 10° NW 17:31:17 45° NNW 17:31:17 45° NNW visible
25 Jan 8.1 16:12:10 10° NNW 16:16:23 30° NNE 16:19:23 16° E visible
25 Jan 8.8 17:54:07 10° WNW 17:57:08 33° W 17:57:08 33° W visible
26 Jan 7.1 16:37:52 10° NW 16:42:38 66° NE 16:45:32 23° ESE visible
26 Jan 9.9 18:21:24 10° W 18:23:17 15° WSW 18:23:17 15° WSW visible
27 Jan 8.0 17:04:01 10° WNW 17:08:38 49° SW 17:12:02 17° SSE visible
